Location: Lynch Observatory
(39.9540°N, 75.1861°W)
Time: 23:38:41
(UTC-04:00)

ZACube-1 - Pass Details

Date: 01 May 2024
Orbit: 566 x 635 km, 97.7° (Epoch: 27 May)

Event Time Altitude Azimuth Distance (km) Brightness Sun altitude
Rises 03:17:14 0° 23° (NNE) 2,941 ? -26.0°
Reaches altitude 10° 03:19:40 10° 34° (NE) 2,031 ? -25.7°
Maximum altitude 03:23:36 31° 96° (E) 1,128 ? -25.2°
Enters shadow 03:24:54 26° 128° (SE) 1,257 ? -25.0°
